Delta Virtual Airport Information Service

Willemstad Curacao Hato International Airport

ICAO: TNCC Country: Curacao
Latitude: 12.1889 Longitude: -68.9598
Latest Arrival : DAC8128 (TBPB-TNCC) Latest Departure : DAL4959511 (TNCC-KMIA)


WX CaptureLIVE
Data provided by noaa.gov | Fetched at 07:39:26

METAR : TNCC 301300Z 11012KT 9999 SCT018 29/24 Q1013 NOSIG

TAF : TNCC 301115Z 3012/0112 13007KT 9999 SCT020 BECMG 3012/3014 12012KT PROB30 TEMPO 0105/0112 12020KT 5000 SHRA BKN014


Runway Data for TNCC
Data provided by openaviationdata.com

Runway ID Mag Var Hdg Length Elevation Surface ILS Freq ILS Id ILS Slope
11 -9 111° 11186 ft 29 ft Asphalt 111.9 IATO 3
29 -9 291° 11186 ft 29 ft Asphalt -- -- --

Willemstad Curacao Hato International Airport, Curacao
Use only for reference purposes



Not for navigational purposes.